Location: Biltmore Gardens
(41.6070°N, 83.4666°W)
Time: 14:28:36
(UTC+00:00)

Cosmos 405 - Pass Details

Date: 14 July 2020
Orbit: 450 x 465 km, 81.3° (Epoch: 05 August)

Event Time Altitude Azimuth Distance (km) Brightness Sun altitude
Rises 04:24:08 0° 355° (N) 2,494 8.0 -24.4°
Reaches altitude 10° 04:26:16 10° 360° (N) 1,612 6.6 -24.5°
Enters shadow 04:28:38 36° 23° (NNE) 744 4.3 -24.7°
